| time (UTC) | temp F | wind direction | speed knots | gust knots | rain 1hr in | rain 24hr in | rain mn in | humidity % | barometer mb |
| 20260509005932 | 80 | 127 | 5.2 | 11.3 | 0.00 | 0.00 | 0.00 | 82 | 1012.8 |
| 20260509003826 | 80 | 133 | 6.1 | 10.4 | 0.00 | 0.00 | 0.00 | 82 | 1012.8 |
| 20260509002813 | 80 | 132 | 6.1 | 12.2 | 0.00 | 0.00 | 0.00 | 81 | 1012.8 |
| 20260509001826 | 80 | 132 | 7.0 | 13.0 | 0.00 | 0.00 | 0.00 | 81 | 1012.6 |
| 20260509000800 | 80 | 132 | 6.1 | 13.0 | 0.00 | 0.00 | 0.00 | 81 | 1012.5 |
| 20260508235802 | 81 | 150 | 7.0 | 13.0 | 0.00 | 0.00 | 0.00 | 80 | 1012.3 |
| 20260508234817 | 81 | 148 | 6.1 | 12.2 | 0.00 | 0.00 | 0.00 | 79 | 1012.2 |
| 20260508233742 | 81 | 146 | 6.1 | 12.2 | 0.00 | 0.00 | 0.00 | 79 | 1012.0 |
| 20260508232718 | 81 | 143 | 7.0 | 12.2 | 0.00 | 0.00 | 0.00 | 79 | 1011.8 |
| 20260508231718 | 81 | 144 | 6.1 | 12.2 | 0.00 | 0.00 | 0.00 | 79 | 1011.9 |
| 20260508225510 | 81 | 153 | 7.0 | 13.0 | 0.00 | 0.00 | 0.00 | 77 | 1011.8 |
| 20260508224436 | 82 | 129 | 6.1 | 13.0 | 0.00 | 0.00 | 0.00 | 77 | 1011.8 |
| 20260508223429 | 82 | 128 | 5.2 | 11.3 | 0.00 | 0.00 | 0.00 | 78 | 1011.7 |
| 20260508222412 | 82 | 150 | 5.2 | 11.3 | 0.00 | 0.00 | 0.00 | 77 | 1011.6 |
| 20260508220312 | 82 | 134 | 6.1 | 11.3 | 0.00 | 0.00 | 0.00 | 78 | 1011.7 |
| 20260508215243 | 81 | 109 | 7.0 | 13.0 | 0.00 | 0.00 | 0.00 | 78 | 1011.7 |
| 20260508214247 | 82 | 131 | 7.0 | 13.0 | 0.00 | 0.00 | 0.00 | 78 | 1011.7 |
| 20260508213220 | 82 | 131 | 7.0 | 12.2 | 0.00 | 0.00 | 0.00 | 77 | 1011.8 |
| 20260508212146 | 82 | 111 | 6.1 | 11.3 | 0.00 | 0.00 | 0.00 | 77 | 1012.1 |
| 20260508211121 | 82 | 122 | 7.0 | 10.4 | 0.00 | 0.00 | 0.00 | 78 | 1012.1 |
| 20260508210045 | 82 | 126 | 7.0 | 12.2 | 0.00 | 0.00 | 0.00 | 78 | 1012.1 |
| 20260508205022 | 82 | 116 | 7.0 | 12.2 | 0.00 | 0.00 | 0.00 | 78 | 1012.1 |
| 20260508204041 | 82 | 103 | 6.1 | 12.2 | 0.00 | 0.00 | 0.00 | 77 | 1012.1 |
| 20260508203029 | 82 | 109 | 5.2 | 10.4 | 0.00 | 0.00 | 0.00 | 77 | 1012.3 |
| 20260508202033 | 82 | 86 | 5.2 | 10.4 | 0.00 | 0.00 | 0.00 | 76 | 1012.3 |
| 20260508201039 | 82 | 123 | 6.1 | 10.4 | 0.00 | 0.00 | 0.00 | 76 | 1012.4 |
| 20260508200045 | 82 | 119 | 6.1 | 10.4 | 0.00 | 0.00 | 0.00 | 77 | 1012.6 |
| 20260508195033 | 83 | 119 | 5.2 | 10.4 | 0.00 | 0.00 | 0.00 | 77 | 1012.7 |
| 20260508194027 | 82 | 125 | 5.2 | 10.4 | 0.00 | 0.00 | 0.00 | 76 | 1012.9 |
| 20260508193026 | 82 | 86 | 7.0 | 12.2 | 0.00 | 0.00 | 0.00 | 76 | 1013.2 |
| 20260508191956 | 82 | 111 | 6.1 | 12.2 | 0.00 | 0.00 | 0.00 | 76 | 1013.3 |
| 20260508191012 | 82 | 84 | 6.1 | 10.4 | 0.00 | 0.00 | 0.00 | 76 | 1013.4 |
| 20260508190019 | 83 | 110 | 5.2 | 11.3 | 0.00 | 0.00 | 0.00 | 75 | 1013.7 |
| 20260508185010 | 83 | 89 | 6.1 | 11.3 | 0.00 | 0.00 | 0.00 | 76 | 1013.6 |
| 20260508183938 | 83 | 101 | 6.1 | 13.0 | 0.00 | 0.00 | 0.00 | 75 | 1013.7 |
| 20260508181737 | 83 | 78 | 4.3 | 11.3 | 0.00 | 0.00 | 0.00 | 74 | 1013.9 |
| 20260508180713 | 83 | 119 | 4.3 | 11.3 | 0.00 | 0.00 | 0.00 | 73 | 1013.9 |
| 20260508175713 | 84 | 103 | 4.3 | 10.4 | 0.00 | 0.00 | 0.00 | 73 | 1014.0 |
| 20260508173629 | 84 | 69 | 5.2 | 9.6 | 0.00 | 0.00 | 0.00 | 73 | 1014.2 |
| 20260508172552 | 84 | 103 | 4.3 | 9.6 | 0.00 | 0.00 | 0.00 | 73 | 1014.3 |
| 20260508171531 | 84 | 92 | 4.3 | 9.6 | 0.00 | 0.00 | 0.00 | 74 | 1014.3 |
| 20260508170523 | 83 | 57 | 5.2 | 9.6 | 0.00 | 0.00 | 0.00 | 72 | 1014.5 |
| 20260508165507 | 84 | 47 | 3.5 | 7.8 | 0.00 | 0.00 | 0.00 | 72 | 1014.7 |
| 20260508164438 | 83 | 82 | 4.3 | 8.7 | 0.00 | 0.00 | 0.00 | 75 | 1014.9 |
| 20260508163405 | 83 | 73 | 4.3 | 7.8 | 0.00 | 0.00 | 0.00 | 75 | 1015.0 |
| 20260508162349 | 82 | 94 | 4.3 | 7.8 | 0.00 | 0.00 | 0.00 | 75 | 1015.1 |
| 20260508161324 | 83 | 57 | 3.5 | 7.8 | 0.00 | 0.00 | 0.00 | 75 | 1015.2 |
| 20260508160312 | 83 | 33 | 4.3 | 7.8 | 0.00 | 0.00 | 0.00 | 73 | 1015.4 |
| 20260508154201 | 84 | 17 | 3.5 | 7.8 | 0.00 | 0.00 | 0.00 | 72 | 1015.5 |
| 20260508153205 | 82 | 311 | 3.5 | 5.2 | 0.00 | 0.00 | 0.00 | 72 | 1015.6 |
| 20260508152148 | 82 | 300 | 2.6 | 6.1 | 0.00 | 0.00 | 0.00 | 73 | 1015.6 |
| 20260508151122 | 81 | 322 | 3.5 | 6.1 | 0.00 | 0.00 | 0.00 | 74 | 1015.6 |
| 20260508150133 | 81 | 309 | 3.5 | 6.1 | 0.00 | 0.00 | 0.00 | 74 | 1015.6 |
| 20260508145059 | 81 | 319 | 3.5 | 7.0 | 0.00 | 0.00 | 0.00 | 75 | 1015.5 |
| 20260508144039 | 80 | 292 | 5.2 | 7.8 | 0.00 | 0.00 | 0.00 | 76 | 1015.6 |
| 20260508143048 | 80 | 311 | 4.3 | 7.8 | 0.00 | 0.00 | 0.00 | 77 | 1015.6 |
| 20260508142012 | 80 | 324 | 5.2 | 8.7 | 0.00 | 0.00 | 0.00 | 78 | 1015.6 |
| 20260508141021 | 80 | 314 | 6.1 | 8.7 | 0.00 | 0.00 | 0.00 | 78 | 1015.6 |
| 20260508134851 | 79 | 323 | 6.1 | 9.6 | 0.00 | 0.00 | 0.00 | 80 | 1015.5 |
| 20260508132714 | 78 | 302 | 6.1 | 8.7 | 0.00 | 0.00 | 0.00 | 80 | 1015.5 |
| 20260508130449 | 77 | 302 | 2.6 | 6.1 | 0.00 | 0.00 | 0.00 | 80 | 1015.3 |
| 20260508125424 | 77 | 292 | 2.6 | 5.2 | 0.00 | 0.00 | 0.00 | 80 | 1015.2 |
| 20260508123314 | 76 | 275 | 2.6 | 4.3 | 0.00 | 0.00 | 0.00 | 79 | 1015.1 |
| 20260508122239 | 76 | 268 | 3.5 | 5.2 | 0.00 | 0.00 | 0.00 | 80 | 1015.1 |
| 20260508121205 | 75 | 269 | 3.5 | 5.2 | 0.00 | 0.00 | 0.00 | 79 | 1015.0 |
| 20260508120144 | 75 | 263 | 4.3 | 6.1 | 0.00 | 0.00 | 0.00 | 80 | 1014.9 |
| 20260508115123 | 75 | 270 | 4.3 | 6.1 | 0.00 | 0.00 | 0.00 | 80 | 1014.7 |
| 20260508114122 | 74 | 252 | 3.5 | 5.2 | 0.00 | 0.00 | 0.00 | 80 | 1014.7 |
| 20260508113122 | 74 | 246 | 2.6 | 5.2 | 0.00 | 0.00 | 0.00 | 80 | 1014.5 |
| 20260508112052 | 74 | 252 | 3.5 | 5.2 | 0.00 | 0.00 | 0.00 | 80 | 1014.4 |
| 20260508111033 | 74 | 253 | 3.5 | 5.2 | 0.00 | 0.00 | 0.00 | 80 | 1014.3 |
| 20260508104907 | 74 | 269 | 4.3 | 6.1 | 0.00 | 0.00 | 0.00 | 79 | 1014.1 |
| 20260508103846 | 74 | 272 | 4.3 | 6.1 | 0.00 | 0.00 | 0.00 | 79 | 1013.9 |
| 20260508102857 | 74 | 285 | 5.2 | 6.1 | 0.00 | 0.00 | 0.00 | 79 | 1013.9 |
| 20260508101903 | 74 | 275 | 6.1 | 7.0 | 0.00 | 0.00 | 0.00 | 79 | 1013.8 |
| 20260508100849 | 74 | 267 | 5.2 | 7.0 | 0.00 | 0.00 | 0.00 | 79 | 1013.6 |
| 20260508095904 | 74 | 261 | 5.2 | 6.1 | 0.00 | 0.00 | 0.00 | 79 | 1013.4 |
| 20260508094844 | 74 | 264 | 4.3 | 6.1 | 0.00 | 0.00 | 0.00 | 78 | 1013.4 |
| 20260508093857 | 74 | 255 | 4.3 | 5.2 | 0.00 | 0.00 | 0.00 | 78 | 1013.3 |
| 20260508092833 | 74 | 252 | 3.5 | 5.2 | 0.00 | 0.00 | 0.00 | 78 | 1013.2 |
| 20260508091848 | 74 | 257 | 3.5 | 5.2 | 0.00 | 0.00 | 0.00 | 78 | 1013.2 |
| 20260508090833 | 74 | 253 | 2.6 | 4.3 | 0.00 | 0.00 | 0.00 | 77 | 1013.2 |
| 20260508085855 | 74 | 248 | 2.6 | 4.3 | 0.00 | 0.00 | 0.00 | 77 | 1013.2 |
| 20260508084842 | 74 | 245 | 3.5 | 6.1 | 0.00 | 0.00 | 0.00 | 77 | 1013.1 |
| 20260508082719 | 74 | 225 | 4.3 | 6.1 | 0.00 | 0.00 | 0.00 | 75 | 1013.2 |
| 20260508080618 | 75 | 235 | 3.5 | 6.1 | 0.00 | 0.00 | 0.00 | 73 | 1013.2 |
| 20260508075554 | 75 | 236 | 3.5 | 6.1 | 0.00 | 0.00 | 0.00 | 72 | 1013.2 |
| 20260508074610 | 76 | 236 | 3.5 | 5.2 | 0.00 | 0.00 | 0.00 | 72 | 1013.2 |
| 20260508073547 | 76 | 244 | 4.3 | 5.2 | 0.00 | 0.00 | 0.00 | 71 | 1013.3 |
| 20260508072547 | 76 | 249 | 3.5 | 5.2 | 0.00 | 0.00 | 0.00 | 71 | 1013.4 |
| 20260508070328 | 76 | 244 | 0.9 | 1.7 | 0.00 | 0.00 | 0.00 | 70 | 1013.2 |
| 20260508065331 | 76 | 244 | 0.9 | 3.5 | 0.00 | 0.00 | 0.00 | 70 | 1013.3 |
| 20260508064325 | 77 | 244 | 3.5 | 5.2 | 0.00 | 0.00 | 0.00 | 69 | 1013.3 |
| 20260508063301 | 77 | 269 | 3.5 | 5.2 | 0.00 | 0.00 | 0.00 | 67 | 1013.4 |
| 20260508062256 | 77 | 274 | 2.6 | 5.2 | 0.00 | 0.00 | 0.00 | 66 | 1013.3 |
| 20260508061221 | 77 | 282 | 3.5 | 5.2 | 0.00 | 0.00 | 0.00 | 66 | 1013.4 |
| 20260508060216 | 78 | 273 | 3.5 | 5.2 | 0.00 | 0.00 | 0.00 | 64 | 1013.5 |
| 20260508055239 | 78 | 274 | 4.3 | 6.1 | 0.00 | 0.00 | 0.00 | 64 | 1013.6 |
| 20260508054223 | 78 | 269 | 5.2 | 6.1 | 0.00 | 0.00 | 0.00 | 64 | 1013.7 |
| 20260508053150 | 79 | 280 | 4.3 | 6.1 | 0.00 | 0.00 | 0.00 | 62 | 1013.8 |
| 20260508052134 | 79 | 274 | 3.5 | 5.2 | 0.00 | 0.00 | 0.00 | 61 | 1013.8 |
| 20260508050014 | 80 | 279 | 4.3 | 6.1 | 0.00 | 0.00 | 0.00 | 63 | 1013.9 |
| 20260508045012 | 80 | 288 | 4.3 | 6.1 | 0.00 | 0.00 | 0.00 | 65 | 1013.8 |
| 20260508042844 | 80 | 258 | 3.5 | 5.2 | 0.00 | 0.00 | 0.00 | 73 | 1013.6 |
| 20260508041817 | 79 | 252 | 2.6 | 5.2 | 0.00 | 0.00 | 0.00 | 77 | 1013.6 |
| 20260508040743 | 79 | 238 | 3.5 | 4.3 | 0.00 | 0.00 | 0.00 | 77 | 1013.4 |
| 20260508035713 | 79 | 234 | 2.6 | 4.3 | 0.00 | 0.00 | 0.00 | 79 | 1013.5 |
| 20260508034708 | 79 | 215 | 3.5 | 5.2 | 0.00 | 0.00 | 0.00 | 78 | 1013.5 |
| 20260508033702 | 79 | 220 | 4.3 | 6.1 | 0.00 | 0.00 | 0.00 | 79 | 1013.6 |
| 20260508032641 | 79 | 201 | 5.2 | 6.1 | 0.00 | 0.00 | 0.00 | 79 | 1013.5 |
| 20260508031613 | 80 | 221 | 5.2 | 7.0 | 0.00 | 0.00 | 0.00 | 79 | 1013.5 |
| 20260508030553 | 80 | 201 | 6.1 | 7.8 | 0.00 | 0.00 | 0.00 | 79 | 1013.5 |
| 20260508025606 | 80 | 195 | 6.1 | 7.8 | 0.00 | 0.00 | 0.00 | 78 | 1013.5 |
| 20260508023423 | 80 | 202 | 7.0 | 8.7 | 0.00 | 0.00 | 0.00 | 79 | 1013.3 |
| 20260508021259 | 80 | 185 | 7.0 | 9.6 | 0.00 | 0.00 | 0.00 | 78 | 1013.2 |
| 20260508015122 | 81 | 176 | 7.0 | 11.3 | 0.00 | 0.00 | 0.00 | 78 | 1012.9 |
| 20260508011815 | 81 | 153 | 6.1 | 9.6 | 0.00 | 0.00 | 0.00 | 79 | 1012.8 |